FW1542 Weather Reports


Display with metric or nautical units.
time (UTC)temp
F
wind
direction
speed
MPH
gust
MPH
rain 1hr
in
rain 24hr
in
rain mn
in
humidity
%
barometer
mb
20260505090047 69 195 2.0 11.0 0.00 0.00 0.00 92 1007.6
20260505090024 69 171 1.0 11.0 0.00 0.00 0.00 92 1010.2
20260505084608 69 173 4.0 11.0 0.00 0.00 0.00 92 1010.2
20260505084554 69 162 5.0 12.0 0.00 0.00 0.00 92 1007.7
20260505083055 69 157 4.0 12.0 0.00 0.00 0.00 91 1007.8
20260505083006 69 196 4.0 11.0 0.00 0.00 0.00 92 1010.4
20260505081552 69 168 3.0 9.0 0.00 0.00 0.00 91 1008.2
20260505081504 69 212 3.0 8.0 0.00 0.00 0.00 92 1010.9
20260505080051 69 164 2.0 10.0 0.00 0.00 0.00 91 1008.2
20260505080004 69 164 1.0 9.0 0.00 0.00 0.00 91 1010.9
20260505074600 69 164 5.0 10.0 0.00 0.00 0.00 91 1011.2
20260505074544 69 176 5.0 11.0 0.00 0.00 0.00 91 1008.3
20260505073101 69 200 2.0 10.0 0.00 0.00 0.00 91 1011.4
20260505073044 69 201 3.0 10.0 0.00 0.00 0.00 90 1008.7
20260505071555 70 189 2.0 9.0 0.00 0.00 0.00 91 1011.5
20260505071549 70 170 2.0 9.0 0.00 0.00 0.00 90 1008.7
20260505070053 70 186 3.0 10.0 0.00 0.00 0.00 90 1011.8
20260505070046 70 201 3.0 11.0 0.00 0.00 0.00 90 1009.1
20260505064553 70 196 4.0 11.0 0.00 0.00 0.00 90 1011.8
20260505064549 70 145 3.0 12.0 0.00 0.00 0.00 89 1009.2
20260505063048 70 162 4.0 13.0 0.00 0.00 0.00 89 1012.0
20260505061549 70 180 2.0 9.0 0.00 0.00 0.00 88 1009.5
20260505060052 71 192 4.0 11.0 0.00 0.00 0.00 88 1009.6
20260505060048 71 167 3.0 10.0 0.00 0.00 0.00 89 1012.0
20260505054554 71 165 3.0 11.0 0.00 0.00 0.00 88 1009.7
20260505054552 71 115 4.0 11.0 0.00 0.00 0.00 88 1012.2
20260505053046 71 128 3.0 11.0 0.00 0.00 0.00 87 1009.8
20260505053041 71 150 4.0 9.0 0.00 0.00 0.00 88 1012.2
20260505051544 71 152 5.0 12.0 0.00 0.00 0.00 87 1009.6
20260505051539 71 163 6.0 14.0 0.00 0.00 0.00 87 1012.1
20260505041548 73 140 5.0 11.0 0.00 0.00 0.00 84 1009.6
20260505041533 73 120 4.0 11.0 0.00 0.00 0.00 85 1012.1
20260505040044 73 160 3.0 9.0 0.00 0.00 0.00 83 1009.6
20260505040035 73 160 4.0 8.0 0.00 0.00 0.00 83 1012.1
20260505034542 74 188 4.0 12.0 0.00 0.00 0.00 82 1009.5
20260505034532 74 188 4.0 11.0 0.00 0.00 0.00 82 1012.0
20260505033047 74 172 6.0 14.0 0.00 0.00 0.00 80 1009.3
20260505033037 74 172 5.0 14.0 0.00 0.00 0.00 81 1011.8
20260505031554 74 196 4.0 11.0 0.00 0.00 0.00 79 1009.3
20260505031539 74 196 5.0 11.0 0.00 0.00 0.00 79 1011.8
20260505030046 75 148 3.0 9.0 0.00 0.00 0.00 78 1009.3
20260505030030 75 148 4.0 10.0 0.00 0.00 0.00 78 1011.7
20260505024550 75 183 5.0 11.0 0.00 0.00 0.00 77 1009.4
20260505024544 75 183 5.0 10.0 0.00 0.00 0.00 77 1011.8
20260505023046 75 169 2.0 6.0 0.00 0.00 0.00 76 1009.3
20260505023039 75 169 2.0 6.0 0.00 0.00 0.00 76 1011.8
20260505021544 75 157 2.0 6.0 0.00 0.00 0.00 75 1009.1
20260505021527 75 157 2.0 6.0 0.00 0.00 0.00 75 1011.8
20260505020041 76 157 2.0 9.0 0.00 0.00 0.00 74 1008.8
20260505020027 76 157 2.0 7.0 0.00 0.00 0.00 75 1011.5
20260505014600 76 182 1.0 4.0 0.00 0.00 0.00 73 1008.6
20260505014535 76 182 1.0 4.0 0.00 0.00 0.00 73 1011.3
20260505013044 77 186 2.0 7.0 0.00 0.00 0.00 71 1008.6
20260505013025 77 186 3.0 6.0 0.00 0.00 0.00 72 1011.3
20260505011549 78 160 3.0 9.0 0.00 0.00 0.00 70 1008.6
20260505011524 78 186 2.0 9.0 0.00 0.00 0.00 71 1011.2
20260505010045 78 201 4.0 10.0 0.00 0.00 0.00 70 1008.6
20260505010024 78 206 4.0 10.0 0.00 0.00 0.00 70 1011.3
20260505004542 79 207 4.0 11.0 0.00 0.00 0.00 69 1008.6
20260505004525 79 139 4.0 9.0 0.00 0.00 0.00 69 1011.3
20260505003046 79 160 6.0 16.0 0.00 0.00 0.00 67 1008.2
20260505003023 79 197 6.0 15.0 0.00 0.00 0.00 68 1011.0
20260505001546 80 143 5.0 18.0 0.00 0.00 0.00 67 1008.3
20260505001523 80 157 7.0 15.0 0.00 0.00 0.00 68 1011.0
20260505000049 80 167 5.0 14.0 0.00 0.00 0.00 68 1008.4
20260505000022 80 167 3.0 13.0 0.00 0.00 0.00 68 1011.2
20260504234546 80 184 4.0 13.0 0.00 0.00 0.00 66 1008.7
20260504234521 80 158 4.0 11.0 0.00 0.00 0.00 67 1011.5
20260504233042 80 160 5.0 14.0 0.00 0.00 0.00 67 1008.8
20260504233019 80 139 5.0 14.0 0.00 0.00 0.00 67 1011.6
20260504231547 80 123 5.0 12.0 0.00 0.00 0.00 67 1009.0
20260504231517 80 240 5.0 12.0 0.00 0.00 0.00 67 1011.7
20260504230050 81 138 7.0 16.0 0.00 0.00 0.00 66 1009.3
20260504230015 81 128 8.0 16.0 0.00 0.00 0.00 67 1011.7
20260504224547 81 172 6.0 14.0 0.00 0.00 0.00 67 1009.6
20260504224512 81 155 7.0 15.0 0.00 0.00 0.00 67 1012.2
20260504223043 81 175 3.0 10.0 0.00 0.00 0.00 66 1009.7
20260504223012 81 174 3.0 9.0 0.00 0.00 0.00 67 1012.3
20260504221543 80 179 5.0 13.0 0.00 0.00 0.00 67 1009.8
20260504221512 80 198 4.0 12.0 0.00 0.00 0.00 67 1012.3
20260504220045 81 175 4.0 16.0 0.00 0.00 0.00 65 1009.9
20260504220011 81 159 4.0 15.0 0.00 0.00 0.00 66 1012.4
20260504214551 81 124 5.0 12.0 0.00 0.00 0.00 66 1009.7
20260504214508 81 158 6.0 11.0 0.00 0.00 0.00 67 1012.2
20260504213042 80 192 5.0 14.0 0.00 0.00 0.00 67 1010.0
20260504213005 80 167 5.0 12.0 0.00 0.00 0.00 68 1012.8
20260504211546 79 192 6.0 14.0 0.00 0.00 0.00 67 1010.5
20260504211508 79 176 5.0 13.0 0.00 0.00 0.00 68 1013.0
20260504210107 80 159 5.0 12.0 0.00 0.00 0.00 69 1013.2
20260504210055 80 113 3.0 14.0 0.00 0.00 0.00 68 1010.7
20260504204620 79 206 3.0 11.0 0.00 0.00 0.00 68 1013.6
20260504204607 79 206 4.0 14.0 0.00 0.00 0.00 68 1010.9
20260504203131 79 207 3.0 12.0 0.00 0.00 0.00 69 1013.9
20260504203104 79 153 4.0 12.0 0.00 0.00 0.00 68 1011.2
20260504201556 79 241 5.0 12.0 0.00 0.00 0.00 68 1014.0
20260504201546 79 169 6.0 15.0 0.00 0.00 0.00 68 1011.5
20260504200054 79 185 4.0 13.0 0.00 0.00 0.00 69 1014.4
20260504200049 79 196 4.0 14.0 0.00 0.00 0.00 68 1011.6
20260504194551 79 208 4.0 12.0 0.00 0.00 0.00 69 1014.5
20260504194542 79 207 3.0 12.0 0.00 0.00 0.00 69 1011.8
20260504193051 79 238 4.0 11.0 0.00 0.00 0.00 69 1014.7
20260504193043 79 229 3.0 13.0 0.00 0.00 0.00 69 1011.9
20260504191553 79 192 3.0 11.0 0.00 0.00 0.00 70 1014.9
20260504191542 79 202 3.0 12.0 0.00 0.00 0.00 69 1012.0
20260504190053 78 153 5.0 12.0 0.00 0.00 0.00 69 1012.1
20260504184546 78 180 4.0 15.0 0.00 0.00 0.00 68 1012.2
20260504183050 78 220 4.0 15.0 0.00 0.00 0.00 69 1012.7
20260504183043 79 198 6.0 13.0 0.00 0.00 0.00 69 1015.4
20260504181541 77 170 6.0 15.0 0.00 0.00 0.00 70 1012.6
20260504180053 76 194 7.0 13.0 0.00 0.00 0.00 72 1013.1
20260504180038 76 219 6.0 12.0 0.00 0.00 0.00 73 1015.7
20260504174541 77 216 5.0 12.0 0.00 0.00 0.00 71 1013.1
20260504174538 77 216 4.0 12.0 0.00 0.00 0.00 71 1015.7
20260504173051 76 188 4.0 11.0 0.00 0.00 0.00 72 1013.2
20260504173039 76 208 5.0 11.0 0.00 0.00 0.00 72 1015.9
20260504171545 76 183 4.0 14.0 0.00 0.00 0.00 72 1013.5
20260504171537 76 183 5.0 14.0 0.00 0.00 0.00 73 1016.3